Orbital Elements at Epoch 2455808.5 (2011-Sep-04.0) TDB
Reference: JPL 52 (heliocentric ecliptic J2000)
Element | Value | Uncertainty (1-sigma) | Units |
e | .5022047919070708 | 1.016e-07 | |
a | 3.113058173805873 | 9.3281e-08 | au |
q | 1.549665441435089 | 3.4783e-07 | au |
i | 8.13174540962458 | 1.0546e-05 | deg |
node | 150.122167075099 | 0.00013216 | deg |
peri | 180.7544335927493 | 0.000137 | deg |
M | 112.6431509083299 | 2.405e-05 | deg |
tp | 2455180.757444551365 (2009-Dec-15.25744455) | 0.00013654 | TDB |
period | 2006.223353476851 5.49 | 9.0173e-05 2.469e-07 | d yr |
n | .1794416356364849 | 8.0653e-09 | deg/d |
Q | 4.676450906176658 | 1.4013e-07 | au |
|
Additional Model Parameters
Parameter | Value | Uncertainty (1-sigma) |
A1 [EST] | 1.779526805796733E-10 | 8.337E-11 |
A2 [EST] | -1.343652001296701E-11 | 1.161E-12 |
|
| | Orbit Determination Parameters
Additional Information
|